This is the latest recevied weather packets stored in our database for station/object KC8JWT. If no packets are shown the sender has not sent any weather packets the latest 10 day(s).
| Time | Temp. | Humidity | Pressure | Rain* | Wind** | Luminosity | Snow |
|---|---|---|---|---|---|---|---|
| 1777990689 | 23.89° C | 59% | 1009.9 hPa | 0 mm | - | 424 W/m² | - |
| 1777990386 | 23.89° C | 59% | 1010 hPa | 0 mm | - | 625 W/m² | - |
| 1777989778 | 23.33° C | 60% | 1009.7 hPa | 0 mm | - | 539 W/m² | - |
| 1777989475 | 23.33° C | 60% | 1009.8 hPa | 0 mm | - | 542 W/m² | - |
| 1777989172 | 23.33° C | 59% | 1009.7 hPa | 0 mm | - | 522 W/m² | - |
| 1777988868 | 22.78° C | 60% | 1009.8 hPa | 0 mm | - | 535 W/m² | - |
| 1777988565 | 22.78° C | 62% | 1009.9 hPa | 0 mm | - | 572 W/m² | - |
| 1777988262 | 22.78° C | 61% | 1010 hPa | 0 mm | - | 511 W/m² | - |
| 1777987958 | 22.22° C | 59% | 1009.9 hPa | 0 mm | - | 462 W/m² | - |
| 1777987654 | 22.22° C | 60% | 1010.2 hPa | 0 mm | - | 402 W/m² | - |
| 1777987352 | 21.67° C | 61% | 1010.1 hPa | 0 mm | - | 372 W/m² | - |
| 1777987049 | 21.67° C | 61% | 1010.2 hPa | 0 mm | - | 339 W/m² | - |
| 1777986746 | 21.67° C | 63% | 1010.3 hPa | 0 mm | - | 313 W/m² | - |
| 1777986444 | 21.67° C | 63% | 1010.5 hPa | 0 mm | - | 313 W/m² | - |
| 1777986142 | 21.67° C | 62% | 1010.6 hPa | 0 mm | - | 299 W/m² | - |
| 1777985838 | 21.67° C | 62% | 1010.6 hPa | 0 mm | - | 302 W/m² | - |
| 1777985536 | 21.11° C | 62% | 1010.7 hPa | 0 mm | - | 262 W/m² | - |
| 1777985232 | 21.11° C | 65% | 1010.5 hPa | 0 mm | - | 281 W/m² | - |
| 1777984929 | 20.56° C | 65% | 1010.5 hPa | 0 mm | - | 222 W/m² | - |
| 1777984625 | 20° C | 66% | 1010.7 hPa | 0 mm | - | 218 W/m² | - |
| 1777984322 | 20° C | 66% | 1010.2 hPa | 0 mm | - | 207 W/m² | - |
| 1777984018 | 19.44° C | 68% | 1010.1 hPa | 0 mm | - | 184 W/m² | - |
| 1777983715 | 19.44° C | 68% | 1010.2 hPa | 0 mm | - | 107 W/m² | - |
| 1777983407 | 20° C | 67% | 1009.9 hPa | 0 mm | - | 108 W/m² | - |
| 1777983103 | 20.56° C | 66% | 1010.1 hPa | 0 mm | - | 150 W/m² | - |
* Rain latest hour (hover to see other rain measurements)
** Current wind speed in m/s (hover to see current wind gust speed)